[[[{"header":{"parameterUnit":"kt","parameterCategory":2,"dx":1,"dy":1,"la1":30.253999710083008,"la2":30.299108505249023,"lo1":-89.0895004272461,"lo2":-89.04439544677734,"nx":28,"ny":28,"refTime":"2022-10-03T21:00:00:Z","depth":0,"parameterNumber":1,"parameterNumberName":"U-component_of_WINDS"},"data":[-5.9344,-5.9428,-5.9393,-5.9474,-5.9456,-5.9505,-5.9511,-5.9516,-5.951,-5.9566,-5.9591,-5.9564,-5.9544,-5.9567,-5.9592,-5.9579,-5.9594,-5.9651,-5.9626,-5.9401,-5.9368,-5.9336,-5.9313,-5.9654,-5.9655,-5.9864,-5.9866,-5.9867,-5.9189,-5.9173,-5.9204,-5.9211,-5.9238,-5.9162,-5.9161,-5.9189,-5.9234,-5.9228,-5.9249,-5.9295,-5.9325,-5.9284,-5.9308,-5.9348,-5.9313,-5.9357,-5.9353,-5.9351,-5.911,-5.9086,-5.9385,-5.9385,-5.9385,-5.9385,-5.9385,-5.9384,-5.8899,-5.895,-5.8932,-5.8965,-5.8958,-5.8963,-5.9005,-5.8969,-5.8999,-5.9017,-5.8967,-5.9018,-5.9004,-5.9012,-5.9005,-5.9045,-5.8989,-5.9025,-5.9034,-5.9045,-5.9062,-5.877,-5.9046,-5.9045,-5.9044,-5.9044,-5.9043,0,-5.8674,-5.8641,-5.8666,-5.8683,-5.8704,-5.8713,-5.8714,-5.8739,-5.8652,-5.8681,-5.8718,-5.8733,-5.8764,-5.8795,-5.8808,-5.8792,-5.8714,-5.8701,-5.8727,-5.8752,-5.8776,-5.8766,-5.8376,-5.8693,-5.869,-5.8688,-5.8686,-5.8685,-5.8379,-5.8442,-5.8403,-5.8426,-5.8417,-5.8455,-5.847,-5.8388,-5.8408,-5.8397,-5.8446,-5.8476,-5.8494,-5.856,-5.8515,-5.8538,-5.85,-5.8626,-5.8502,-5.8526,-5.8503,-5.8501,-5.8508,-5.8651,-5.8656,-5.8659,-5.8662,0,-5.8217,-5.8154,-5.8238,-5.8192,-5.8182,-5.8252,-5.8212,-5.8259,-5.8217,-5.8276,-5.8285,-5.8218,-5.8255,-5.8188,-5.8217,-5.8181,-5.83,-5.8262,-5.8306,-5.8295,-5.8402,-5.8394,-5.8757,-5.8801,-5.8445,-5.8449,-5.8452,0,-5.7941,-5.8025,-5.7926,-5.7978,-5.807,-5.7982,-5.8076,-5.8048,-5.803,-5.8076,-5.7975,-5.802,-5.7926,-5.7962,-5.7909,-5.7993,-5.7998,-5.7975,-5.796,-5.7985,-5.7988,-5.7994,-5.7978,-5.7921,-5.7919,-5.7918,-5.7916,0,-5.7694,-5.7737,-5.7821,-5.782,-5.7777,-5.7818,-5.7802,-5.778,-5.7795,-5.7803,-5.7812,-5.7828,-5.7837,-5.7852,-5.7783,-5.7702,-5.7884,-5.7758,-5.7861,-5.7863,-5.7904,-5.7903,-5.8241,-5.7914,-5.7914,-5.7913,-5.7912,0,-5.7459,-5.7467,-5.7597,-5.7558,-5.7573,-5.7628,-5.7636,-5.7667,-5.7651,-5.762,-5.7625,-5.7549,-5.7614,-5.7495,-5.7586,-5.75,-5.7516,-5.7499,-5.7505,-5.7507,-5.7375,-5.7577,-5.7906,-5.7938,-5.7511,-5.7507,-5.7504,0,-5.7195,-5.7307,-5.723,-5.7355,-5.7397,-5.728,-5.7339,-5.7326,-5.7289,-5.732,-5.7278,-5.7314,-5.721,-5.7211,-5.7265,-5.7224,-5.7335,-5.7207,-5.7255,-5.7258,-5.7265,-5.7566,-5.7632,-5.7841,-5.746,-5.7465,-5.7468,0,-5.6981,-5.6923,-5.695,-5.6946,-5.6912,-5.6945,-5.7014,-5.7027,-5.7053,-5.7048,-5.7103,-5.715,-5.7074,-5.7076,-5.7014,-5.7074,-5.7257,-5.6984,-5.6982,-5.7037,-5.7431,-5.7494,-5.7529,-5.7203,-5.7208,-5.7213,-5.7433,0,-5.6645,-5.669,-5.6759,-5.6749,-5.6763,-5.6836,-5.6759,-5.6784,-5.6723,-5.668,-5.6759,-5.6728,-5.6742,-5.6762,-5.6701,-5.6858,-5.6821,-5.6739,-5.6617,-5.6815,-5.6886,-5.6915,-5.6518,-5.6514,-5.6511,-5.6508,0,0,-5.6409,-5.647,-5.638,-5.644,-5.6447,-5.632,-5.6405,-5.6396,-5.6382,-5.639,-5.6321,-5.6382,-5.6359,-5.6463,-5.6519,-5.6524,-5.6545,-5.6477,-5.6721,-5.6745,-5.6767,-5.6844,-5.6876,-5.6502,-5.65,-5.6499,-5.6498,0,-5.6268,-5.6245,-5.6328,-5.6315,-5.6291,-5.624,-5.6261,-5.6214,-5.619,-5.6264,-5.6159,-5.6196,-5.6246,-5.6236,-5.6238,-5.6464,-5.6382,-5.6473,-5.6621,-5.6689,-5.6718,-5.6743,-5.6825,-5.6856,-5.649,-5.649,-5.6491,0,-5.6045,-5.601,-5.604,-5.6045,-5.6028,-5.6072,-5.5926,-5.5977,-5.601,-5.5867,-5.5942,-5.5914,-5.5894,-5.6,-5.6045,-5.5983,-5.6238,-5.6142,-5.6161,-5.6165,-5.6227,-5.6261,-5.6292,-5.5887,-5.5885,-5.5884,0,0,-5.5934,-5.5973,-5.5907,-5.6009,-5.6005,-5.5929,-5.5944,-5.5882,-5.5865,-5.5859,-5.582,-5.5808,-5.5835,-5.5856,-5.5877,-5.6004,-5.5994,-5.6071,-5.6099,-5.6123,-5.6139,-5.6208,-5.6242,-5.5877,-5.5877,-5.5876,0,0,-5.5881,-5.5808,-5.5747,-5.5854,-5.5842,-5.5783,-5.5849,-5.5773,-5.5784,-5.5766,-5.5665,-5.5657,-5.5754,-5.573,-5.565,-5.5832,-5.5713,-5.5731,-5.5844,-5.5879,-5.5907,-5.5911,-5.5494,0,0,0,0,0,-5.5696,-5.5817,-5.5763,-5.5768,-5.5772,-5.5814,-5.5813,-5.5731,-5.5649,-5.5704,-5.566,-5.5569,-5.5666,-5.5592,-5.5601,-5.5691,-5.579,-5.5806,-5.582,-5.5996,-5.6033,-5.6064,0,0,0,0,0,0,-5.5697,-5.5705,-5.5759,-5.5707,-5.5707,-5.5808,-5.5651,-5.5632,-5.5642,-5.5623,-5.5581,-5.5568,-5.5499,-5.5583,-5.5591,-5.5679,-5.5491,-5.5796,-5.5809,-5.5821,-5.6008,-5.6039,-5.6065,0,0,0,0,0,-5.5698,-5.5704,-5.5731,-5.5704,-5.5704,-5.5625,-5.5646,-5.5629,-5.5635,-5.5564,-5.5548,-5.5572,-5.5504,-5.5505,-5.5587,-5.5677,-5.5484,-5.5488,-5.5805,-5.5815,-5.5824,-5.6023,0,0,0,0,0,0,-5.5699,-5.5689,-5.5729,-5.5726,-5.5651,-5.5617,-5.5609,-5.5627,-5.5573,-5.5559,-5.555,-5.5536,-5.5509,-5.5509,-5.5511,-5.5681,-5.5479,-5.5482,-5.5485,-5.5813,-5.5821,-5.5828,0,0,0,0,0,0,-5.5685,-5.5688,-5.5728,-5.5665,-5.5654,-5.5611,-5.5604,-5.566,-5.5574,-5.5561,-5.5548,-5.5545,-5.5506,-5.5512,-5.5513,-5.5605,-5.5475,-5.5478,-5.5481,-5.5482,-5.5819,-5.5825,0,0,0,0,0,0,-5.5685,-5.5687,-5.5665,-5.5657,-5.5647,-5.5607,-5.5659,-5.5668,-5.552,-5.5566,-5.5505,-5.5498,-5.5512,-5.5511,-5.5516,-5.5608,-5.5606,-5.5475,-5.5477,-5.5479,-5.548,0,0,0,0,0,0,0,-5.5684,-5.5691,-5.5747,-5.5651,-5.5641,-5.5699,-5.5698,-5.5697,-5.5519,-5.5513,-5.5506,-5.5501,-5.5455,-5.5459,-5.5463,-5.561,0,0,-5.5475,-5.5476,0,0,0,0,0,0,0,0,-5.5688,-5.569,-5.5747,-5.5747,-5.5746,-5.5699,-5.5698,-5.5697,-5.5518,-5.5513,-5.5508,-5.5503,-5.5456,-5.5459,-5.5462,0,0,0,0,0,0,0,0,0,0,0,0,0,0,0,-5.5747,-5.5747,0,-5.5699,-5.5698,-5.5697,-5.5517,-5.5513,-5.5509,-5.5505,-5.5457,-5.546,-5.5462,0,0,0,0,0,0,0,0,0,0,0,0,0,0,0,0,0,0,0,0,0,0,0,0,0,0,0,0,0,0,0,0,0,0,0,0,0,0,0,0,0,0,0,0,0,0,0,0,0,0,0,0,0,0,0,0,0,0,0,0,0,0,0,0,0,0,0,0,0]}],[{"header":{"parameterUnit":"kt","parameterCategory":2,"dx":1,"dy":1,"la1":30.253999710083008,"la2":30.299108505249023,"lo1":-89.0895004272461,"lo2":-89.04439544677734,"nx":28,"ny":28,"refTime":"2022-10-03T21:00:00:Z","depth":0,"parameterNumber":2,"parameterNumberName":"V-component_of_WINDS"},"data":[-3.5041,-3.5108,-3.5113,-3.5191,-3.5209,-3.5263,-3.5283,-3.531,-3.5333,-3.5396,-3.5434,-3.5444,-3.5468,-3.5513,-3.5553,-3.5556,-3.5573,-3.5593,-3.5594,-3.5502,-3.549,-3.5478,-3.5464,-3.5596,-3.5596,-3.5689,-3.569,-3.5691,-3.497,-3.4988,-3.5032,-3.5077,-3.5113,-3.5097,-3.5131,-3.5162,-3.5211,-3.5239,-3.5276,-3.5333,-3.5378,-3.5395,-3.5438,-3.5469,-3.5464,-3.548,-3.5479,-3.5483,-3.5384,-3.5369,-3.5483,-3.5483,-3.5483,-3.5483,-3.5483,-3.5483,-3.4843,-3.4883,-3.4914,-3.4961,-3.4985,-3.5015,-3.5054,-3.5067,-3.5109,-3.5156,-3.5153,-3.5208,-3.5237,-3.5292,-3.5311,-3.5353,-3.5336,-3.5356,-3.5361,-3.5366,-3.5372,-3.5238,-3.5361,-3.5361,-3.536,-3.536,-3.536,0,-3.4752,-3.4754,-3.4796,-3.484,-3.4874,-3.4909,-3.4941,-3.4965,-3.4969,-3.5004,-3.5053,-3.5083,-3.514,-3.5187,-3.5229,-3.5246,-3.5233,-3.5232,-3.5246,-3.5249,-3.5246,-3.5249,-3.5089,-3.5229,-3.5228,-3.5227,-3.5227,-3.5226,-3.4626,-3.4672,-3.4707,-3.4736,-3.4755,-3.4802,-3.483,-3.4831,-3.4862,-3.4901,-3.4936,-3.4983,-3.5021,-3.5099,-3.5114,-3.5157,-3.5152,-3.5205,-3.5158,-3.5158,-3.5154,-3.5152,-3.5156,-3.5214,-3.5216,-3.5217,-3.5218,0,-3.4554,-3.4563,-3.4637,-3.4667,-3.4676,-3.4724,-3.475,-3.479,-3.4798,-3.4854,-3.4867,-3.4882,-3.493,-3.4937,-3.4994,-3.4996,-3.5074,-3.5066,-3.5063,-3.5063,-3.5111,-3.5107,-3.5267,-3.5288,-3.5149,-3.5151,-3.5152,0,-3.445,-3.4511,-3.4521,-3.4564,-3.4631,-3.4631,-3.4697,-3.4712,-3.4738,-3.4783,-3.4769,-3.4811,-3.4813,-3.4855,-3.4858,-3.4923,-3.4933,-3.4939,-3.4939,-3.4941,-3.4941,-3.4959,-3.4953,-3.4937,-3.4937,-3.4936,-3.4935,0,-3.4338,-3.4415,-3.4484,-3.4503,-3.4543,-3.4574,-3.4592,-3.4622,-3.465,-3.4687,-3.4706,-3.4749,-3.4773,-3.4806,-3.481,-3.4779,-3.4889,-3.4847,-3.4895,-3.4895,-3.4921,-3.492,-3.5058,-3.4934,-3.4934,-3.4934,-3.4933,0,-3.4257,-3.4296,-3.4394,-3.4427,-3.4447,-3.4492,-3.4536,-3.4576,-3.4609,-3.4614,-3.4643,-3.4636,-3.4693,-3.465,-3.4729,-3.4687,-3.4711,-3.4721,-3.4725,-3.4732,-3.4685,-3.4763,-3.4893,-3.4907,-3.4736,-3.4734,-3.4733,0,-3.4126,-3.4228,-3.4231,-3.4324,-3.4373,-3.4356,-3.4405,-3.4435,-3.4447,-3.4488,-3.45,-3.4548,-3.4518,-3.4534,-3.4572,-3.4587,-3.4641,-3.4579,-3.464,-3.4642,-3.4633,-3.4752,-3.4771,-3.4863,-3.4712,-3.4714,-3.4715,0,-3.4027,-3.4076,-3.4092,-3.4115,-3.4155,-3.4196,-3.4253,-3.4302,-3.4329,-3.4364,-3.4412,-3.448,-3.446,-3.4487,-3.4486,-3.4525,-3.4604,-3.4499,-3.4499,-3.4518,-3.4702,-3.4719,-3.4735,-3.4595,-3.4597,-3.4599,-3.4699,0,-3.3903,-3.3956,-3.4001,-3.4052,-3.4084,-3.4144,-3.4154,-3.4186,-3.4182,-3.4194,-3.4264,-3.4292,-3.4341,-3.436,-3.4357,-3.4445,-3.4431,-3.441,-3.4371,-3.4448,-3.4481,-3.4495,-3.432,-3.4319,-3.4318,-3.4318,0,0,-3.3776,-3.3853,-3.3855,-3.3912,-3.394,-3.3923,-3.3985,-3.401,-3.4062,-3.4081,-3.4058,-3.4158,-3.4182,-3.4267,-3.4291,-3.4311,-3.4328,-3.4301,-3.4411,-3.4421,-3.4431,-3.4466,-3.448,-3.4316,-3.4316,-3.4315,-3.4315,0,-3.3734,-3.3759,-3.3822,-3.3848,-3.3887,-3.3897,-3.3911,-3.3947,-3.3958,-3.4028,-3.4013,-3.4056,-3.4137,-3.4164,-3.4188,-3.429,-3.4277,-3.4304,-3.4357,-3.4401,-3.4413,-3.4423,-3.446,-3.4473,-3.4313,-3.4313,-3.4313,0,-3.3639,-3.3666,-3.3697,-3.3761,-3.3786,-3.3837,-3.3798,-3.3853,-3.3891,-3.387,-3.394,-3.3957,-3.3993,-3.4073,-3.4108,-3.4089,-3.4231,-3.4188,-3.4194,-3.4199,-3.4243,-3.4257,-3.4269,-3.4106,-3.4105,-3.4104,0,0,-3.3601,-3.3651,-3.3681,-3.3753,-3.377,-3.3786,-3.3814,-3.3814,-3.3848,-3.3862,-3.3884,-3.3917,-3.3963,-3.3994,-3.4039,-3.4124,-3.4132,-3.4162,-3.4172,-3.418,-3.4189,-3.4235,-3.4248,-3.4101,-3.4101,-3.4101,0,0,-3.3583,-3.3621,-3.3612,-3.3697,-3.373,-3.3764,-3.3808,-3.3797,-3.3839,-3.3833,-3.3835,-3.3845,-3.3919,-3.3936,-3.3896,-3.4025,-3.3985,-3.3995,-3.4011,-3.4024,-3.4033,-3.4028,-3.3861,0,0,0,0,0,-3.3546,-3.3616,-3.3608,-3.3623,-3.3705,-3.3769,-3.3779,-3.3783,-3.3755,-3.3789,-3.3805,-3.379,-3.3915,-3.388,-3.3895,-3.394,-3.4064,-3.4071,-3.4077,-3.4118,-3.4131,-3.4142,0,0,0,0,0,0,-3.3552,-3.3572,-3.3606,-3.3643,-3.3662,-3.3767,-3.372,-3.3723,-3.3752,-3.3748,-3.3787,-3.3791,-3.3795,-3.3872,-3.3886,-3.3929,-3.3856,-3.4067,-3.4073,-3.4078,-3.4123,-3.4133,-3.4142,0,0,0,0,0,-3.3557,-3.3573,-3.3702,-3.3642,-3.3658,-3.368,-3.3717,-3.3719,-3.3742,-3.3768,-3.3772,-3.3742,-3.3797,-3.3808,-3.388,-3.3922,-3.3847,-3.3852,-3.4071,-3.4075,-3.4079,-3.4128,0,0,0,0,0,0,-3.3561,-3.3575,-3.3705,-3.371,-3.3617,-3.3674,-3.3684,-3.3716,-3.376,-3.3765,-3.3723,-3.372,-3.3798,-3.3807,-3.3816,-3.392,-3.3839,-3.3844,-3.3847,-3.4074,-3.4077,-3.408,0,0,0,0,0,0,-3.3567,-3.3579,-3.3708,-3.3675,-3.3677,-3.3669,-3.3677,-3.3739,-3.3761,-3.3713,-3.3711,-3.3721,-3.3784,-3.3807,-3.3814,-3.391,-3.3833,-3.3838,-3.3841,-3.3844,-3.4077,-3.4079,0,0,0,0,0,0,-3.3572,-3.3583,-3.3674,-3.3675,-3.3676,-3.3732,-3.3724,-3.3807,-3.3734,-3.3711,-3.3727,-3.3724,-3.3784,-3.3791,-3.3812,-3.3905,-3.3909,-3.3833,-3.3837,-3.3839,-3.3841,0,0,0,0,0,0,0,-3.3576,-3.3502,-3.3676,-3.3675,-3.3676,-3.3756,-3.3757,-3.3759,-3.3733,-3.373,-3.3728,-3.3725,-3.3805,-3.381,-3.3816,-3.3902,0,0,-3.3833,-3.3835,0,0,0,0,0,0,0,0,-3.3498,-3.3501,-3.3676,-3.3677,-3.3678,-3.3756,-3.3757,-3.3758,-3.3732,-3.373,-3.3728,-3.3726,-3.3806,-3.381,-3.3815,0,0,0,0,0,0,0,0,0,0,0,0,0,0,0,-3.3677,-3.3677,0,-3.3756,-3.3757,-3.3758,-3.3732,-3.373,-3.3729,-3.3727,-3.3807,-3.3811,-3.3815,0,0,0,0,0,0,0,0,0,0,0,0,0,0,0,0,0,0,0,0,0,0,0,0,0,0,0,0,0,0,0,0,0,0,0,0,0,0,0,0,0,0,0,0,0,0,0,0,0,0,0,0,0,0,0,0,0,0,0,0,0,0,0,0,0,0,0,0,0]}]]]